Satellite: OKEAN-4 Catalog number: 23317 Epoch time: 09358.34025199 Element set: 107 Inclination: 082.5400 deg RA of node: 157.0395 deg Eccentricity: 0.0023844 Arg of perigee: 097.1392 deg Mean anomaly: 263.2546 deg Mean motion: 14.82749175 rev/day Decay rate: 9.6e-07 rev/day^2 Epoch rev: 82054 Checksum: 308
Satellite: NOAA-14 Catalog number: 23455 Epoch time: 09357.55737576 Element set: 0879 Inclination: 098.8945 deg RA of node: 074.4211 deg Eccentricity: 0.0009620 Arg of perigee: 019.2817 deg Mean anomaly: 340.8745 deg Mean motion: 14.13774813 rev/day Decay rate: -5.7e-07 rev/day^2 Epoch rev: 77268 Checksum: 348
Satellite: NOAA-15 Catalog number: 25338 Epoch time: 09357.80347846 Element set: 0206 Inclination: 098.6028 deg RA of node: 343.0315 deg Eccentricity: 0.0009964 Arg of perigee: 221.8709 deg Mean anomaly: 138.1700 deg Mean motion: 14.24797893 rev/day Decay rate: -5.6e-07 rev/day^2 Epoch rev: 60377 Checksum: 328
Satellite: RESURS Catalog number: 25394 Epoch time: 09358.13131071 Element set: 389 Inclination: 098.3190 deg RA of node: 020.6278 deg Eccentricity: 0.0002038 Arg of perigee: 039.7986 deg Mean anomaly: 320.3341 deg Mean motion: 14.24191496 rev/day Decay rate: -3.5e-07 rev/day^2 Epoch rev: 59543 Checksum: 297
Satellite: FENGYUN1 Catalog number: 25730 Epoch time: 09358.37406430 Element set: 931 Inclination: 098.7738 deg RA of node: 323.0169 deg Eccentricity: 0.0024139 Arg of perigee: 035.3251 deg Mean anomaly: 324.9506 deg Mean motion: 14.08151778 rev/day Decay rate: 9.79e-06 rev/day^2 Epoch rev: 54708 Checksum: 316
Satellite: OKEAN-0 Catalog number: 25860 Epoch time: 09357.48436696 Element set: 0869 Inclination: 097.8099 deg RA of node: 331.3919 deg Eccentricity: 0.0000665 Arg of perigee: 051.9956 deg Mean anomaly: 308.1302 deg Mean motion: 14.73603864 rev/day Decay rate: 4.5e-07 rev/day^2 Epoch rev: 56102 Checksum: 330
Satellite: NOAA-16 Catalog number: 26536 Epoch time: 09357.84392403 Element set: 0684 Inclination: 099.1773 deg RA of node: 006.1185 deg Eccentricity: 0.0011338 Arg of perigee: 108.9192 deg Mean anomaly: 251.3161 deg Mean motion: 14.12541349 rev/day Decay rate: -1.60e-06 rev/day^2 Epoch rev: 47707 Checksum: 303
Satellite: NOAA-17 Catalog number: 27453 Epoch time: 09357.63269370 Element set: 0682 Inclination: 098.4583 deg RA of node: 049.9223 deg Eccentricity: 0.0010726 Arg of perigee: 292.3353 deg Mean anomaly: 067.6709 deg Mean motion: 14.24116563 rev/day Decay rate: -.00000000 rev/day^2 Epoch rev: 38971 Checksum: 314
Satellite: NOAA-18 Catalog number: 28654 Epoch time: 09357.69567283 Element set: 0164 Inclination: 098.9308 deg RA of node: 299.6554 deg Eccentricity: 0.0014234 Arg of perigee: 185.0580 deg Mean anomaly: 175.0454 deg Mean motion: 14.11312635 rev/day Decay rate: 2.18e-06 rev/day^2 Epoch rev: 23668 Checksum: 332
Satellite: NOAA-19 Catalog number: 33591 Epoch time: 09357.64563062 Element set: 0371 Inclination: 098.7704 deg RA of node: 298.6750 deg Eccentricity: 0.0015104 Arg of perigee: 067.8429 deg Mean anomaly: 292.4327 deg Mean motion: 14.11009814 rev/day Decay rate: -1.53e-06 rev/day^2 Epoch rev: 04515 Checksum: 310
/EX SB KEPS @ AMSAT $ORB09358.M Orbital Elements 09358.MISC
HR AMSAT ORBITAL ELEMENTS FOR MANNED AND MISCELLANEOUS SATELLITES FROM WA5QGD FORT WORTH,TX December 24, 2009 Send Subscribe/unsubscribe to KEPS at http://www.amsat.org/mailman/listinfo/keps BID: ORB09358.M TO ALL RADIO AMATEURS BT
Satellite: HUBBLE Catalog number: 20580 Epoch time: 09357.30213847 Element set: 492 Inclination: 028.4717 deg RA of node: 307.9826 deg Eccentricity: 0.0003481 Arg of perigee: 131.1307 deg Mean anomaly: 228.9628 deg Mean motion: 15.00869724 rev/day Decay rate: 4.07e-06 rev/day^2 Epoch rev: 87829 Checksum: 311
Satellite: ISS Catalog number: 25544 Epoch time: 09358.92155093 Element set: 238 Inclination: 051.6442 deg RA of node: 046.3508 deg Eccentricity: 0.0008002 Arg of perigee: 111.8756 deg Mean anomaly: 254.1167 deg Mean motion: 15.76927485 rev/day Decay rate: 1.5188e-04 rev/day^2 Epoch rev: 63601 Checksum: 305
Satellite: CO-58 Catalog number: 28895 Epoch time: 09357.65514618 Element set: 0471 Inclination: 098.0357 deg RA of node: 242.6961 deg Eccentricity: 0.0019050 Arg of perigee: 114.6048 deg Mean anomaly: 245.7146 deg Mean motion: 14.59827976 rev/day Decay rate: 2.23e-06 rev/day^2 Epoch rev: 22137 Checksum: 337
Satellite: FALCON Catalog number: 30776 Epoch time: 09357.44415891 Element set: 0730 Inclination: 035.4341 deg RA of node: 031.0361 deg Eccentricity: 0.0000609 Arg of perigee: 060.9744 deg Mean anomaly: 299.1045 deg Mean motion: 15.03402717 rev/day Decay rate: 5.34e-06 rev/day^2 Epoch rev: 15359 Checksum: 276
Satellite: MAST Catalog number: 31126 Epoch time: 09357.68731240 Element set: 761 Inclination: 097.9628 deg RA of node: 043.5485 deg Eccentricity: 0.0095437 Arg of perigee: 052.1420 deg Mean anomaly: 308.8348 deg Mean motion: 14.53540593 rev/day Decay rate: 2.9e-07 rev/day^2 Epoch rev: 14256 Checksum: 306
Satellite: CAPE1 Catalog number: 31130 Epoch time: 09357.63698843 Element set: 0774 Inclination: 097.9622 deg RA of node: 041.2690 deg Eccentricity: 0.0103637 Arg of perigee: 058.7348 deg Mean anomaly: 302.3928 deg Mean motion: 14.52117944 rev/day Decay rate: 1.32e-06 rev/day^2 Epoch rev: 14218 Checksum: 306
Satellite: COMPASS Catalog number: 32787 Epoch time: 09358.20719130 Element set: 551 Inclination: 097.9172 deg RA of node: 060.1867 deg Eccentricity: 0.0016617 Arg of perigee: 132.2283 deg Mean anomaly: 228.0417 deg Mean motion: 14.81721367 rev/day Decay rate: 4.35e-06 rev/day^2 Epoch rev: 8958 Checksum: 306
Satellite: AAUSAT2 Catalog number: 32788 Epoch time: 09357.68626328 Element set: 543 Inclination: 097.9195 deg RA of node: 059.7634 deg Eccentricity: 0.0016268 Arg of perigee: 135.1675 deg Mean anomaly: 225.0876 deg Mean motion: 14.81853405 rev/day Decay rate: 7.72e-06 rev/day^2 Epoch rev: 8951 Checksum: 349
Satellite: DO-64 Catalog number: 32789 Epoch time: 09357.63863142 Element set: 0560 Inclination: 097.9235 deg RA of node: 060.0161 deg Eccentricity: 0.0016334 Arg of perigee: 133.7669 deg Mean anomaly: 226.4869 deg Mean motion: 14.81899981 rev/day Decay rate: 7.06e-06 rev/day^2 Epoch rev: 08950 Checksum: 348
Satellite: CO-66 Catalog number: 32791 Epoch time: 09358.20534545 Element set: 540 Inclination: 097.9183 deg RA of node: 060.2144 deg Eccentricity: 0.0016657 Arg of perigee: 129.8658 deg Mean anomaly: 230.4089 deg Mean motion: 14.81532405 rev/day Decay rate: 2.21e-06 rev/day^2 Epoch rev: 8954 Checksum: 314
Satellite: RS-30 Catalog number: 32953 Epoch time: 09357.82324765 Element set: 0483 Inclination: 082.5015 deg RA of node: 138.7208 deg Eccentricity: 0.0019625 Arg of perigee: 124.4655 deg Mean anomaly: 235.8280 deg Mean motion: 12.43003224 rev/day Decay rate: 1.0e-07 rev/day^2 Epoch rev: 07195 Checksum: 284
Satellite: TACSAT-3 Catalog number: 35001 Epoch time: 09358.95719122 Element set: 175 Inclination: 040.4545 deg RA of node: 179.1366 deg Eccentricity: 0.0021736 Arg of perigee: 142.6580 deg Mean anomaly: 217.5750 deg Mean motion: 15.39841612 rev/day Decay rate: 3.173e-05 rev/day^2 Epoch rev: 3375 Checksum: 294
Satellite: PHARMSAT Catalog number: 35002 Epoch time: 09357.94325595 Element set: 0168 Inclination: 040.4666 deg RA of node: 183.9795 deg Eccentricity: 0.0024787 Arg of perigee: 140.0282 deg Mean anomaly: 220.2363 deg Mean motion: 15.40532422 rev/day Decay rate: 2.962e-05 rev/day^2 Epoch rev: 03360 Checksum: 289
Satellite: HAWKSAT1 Catalog number: 35003 Epoch time: 09357.90331526 Element set: 0174 Inclination: 040.4609 deg RA of node: 182.6036 deg Eccentricity: 0.0023783 Arg of perigee: 145.0377 deg Mean anomaly: 215.2006 deg Mean motion: 15.41811125 rev/day Decay rate: 6.144e-05 rev/day^2 Epoch rev: 03362 Checksum: 258
Satellite: CP6 Catalog number: 35004 Epoch time: 09357.89343831 Element set: 0168 Inclination: 040.4614 deg RA of node: 182.5352 deg Eccentricity: 0.0023061 Arg of perigee: 145.2609 deg Mean anomaly: 214.9711 deg Mean motion: 15.42038031 rev/day Decay rate: 7.214e-05 rev/day^2 Epoch rev: 03361 Checksum: 267
Satellite: AEROCUB3 Catalog number: 35005 Epoch time: 09358.89354245 Element set: 173 Inclination: 040.4719 deg RA of node: 177.1638 deg Eccentricity: 0.0023133 Arg of perigee: 149.0768 deg Mean anomaly: 211.1418 deg Mean motion: 15.41952723 rev/day Decay rate: 1.1812e-04 rev/day^2 Epoch rev: 3376 Checksum: 293
Satellite: DRAGNSAT Catalog number: 35690 Epoch time: 09357.58592141 Element set: 148 Inclination: 051.6387 deg RA of node: 042.4374 deg Eccentricity: 0.0003563 Arg of perigee: 327.7842 deg Mean anomaly: 032.2955 deg Mean motion: 15.90930755 rev/day Decay rate: 6.1231e-04 rev/day^2 Epoch rev: 2316 Checksum: 301
Satellite: POLLUX Catalog number: 35693 Epoch time: 09357.60320151 Element set: 156 Inclination: 051.6384 deg RA of node: 043.3293 deg Eccentricity: 0.0000926 Arg of perigee: 269.9588 deg Mean anomaly: 090.1263 deg Mean motion: 15.89326541 rev/day Decay rate: 5.4012e-04 rev/day^2 Epoch rev: 2312 Checksum: 287
Satellite: CASTOR Catalog number: 35694 Epoch time: 09357.58956553 Element set: 137 Inclination: 051.6408 deg RA of node: 045.5564 deg Eccentricity: 0.0002313 Arg of perigee: 224.8731 deg Mean anomaly: 135.2108 deg Mean motion: 15.84461577 rev/day Decay rate: 2.1765e-04 rev/day^2 Epoch rev: 2309 Checksum: 307
Satellite: METEOR-M Catalog number: 35865 Epoch time: 09357.62725017 Element set: 84 Inclination: 098.7854 deg RA of node: 047.4614 deg Eccentricity: 0.0002740 Arg of perigee: 137.6542 deg Mean anomaly: 222.4803 deg Mean motion: 14.21828393 rev/day Decay rate: 1.76e-06 rev/day^2 Epoch rev: 1377 Checksum: 305
/EX